Погода в Шолохове

Россия / Новгородская область     58°30′57″N   31°21′48″E
темп.,
°C
ветер,
м/с
пор.,
м/с
влажн.,
%
обл.,
%
осадки,
мм/ч
давл.,
гПа
погр.,
м
19 апреля, пн
пн1900:00+8всв496695 0.0 1027249
03:00+6св387659 0.0 1027217
06:00+5св388368 0.0 1027227
09:00+8всв466599 0.0 1027543
12:00+12всв464827 0.0 10271277
15:00+13в45416 0.0 10261750
18:00+11юв565332 0.0 1026997
21:00+7юв226912 0.0 102639
20 апреля, вт
вт2000:00+5всв39610 0.0 1026255
03:00+3всв38695 0.0 1025201
06:00+2всв310775 0.0 1024279
09:00+6в585711 0.0 1023642
12:00+8в57415 0.0 10221378
15:00+10вюв5744100 0.0 10201733
18:00+9в5756100 0.0 10181221
21:00+6в4871100 0.0 1017607
21 апреля, ср
ср2100:00+4всв3880100 0.0 1014447
03:00+4св2596100 0.2 1012607
06:00+3св3697100 1.6 1009580
09:00+2ссв3799100 4.2 1006359
12:00+2ссв2499100 3.4 1004295
15:00+2сз1299100 5.6 1003231
18:00+2з2499100 1.0 1002311
21:00+2зюз3699100 2.1 1003322
22 апреля, чт
чт2200:00+2зюз3799100 1.3 1003371
03:00+2зюз2798100 2.4 1004466
06:00+3ю2497100 0.6 1005162
09:00+5ююз3584100 0.6 1006352
12:00+10юз46646 0.0 1008999
15:00+12ююз3657100 0.3 10081358
18:00+12ю356048 0.1 1009490
21:00+8юз2387100 0.5 101053
23 апреля, пт
пт2300:00+7зсз2591100 1.7 1011231
03:00+6ю1186100 1.7 101028
06:00+5ююв2391100 0.0 100990
09:00+6зюз2294100 4.7 1007547
12:00+4з3496100 5.0 1008492
15:00+6зюз2376100 5.1 1008837
18:00+7ююв2276100 0.1 1007458
21:00+4ю3593100 0.7 1008480